Location: Newark
(31.5350°N, 35.0986°E)
Time: 13:20:43
(UTC+00:00)

Vanguard 1 - Pass Details

Date: 29 September 2019
Orbit: 653 x 3830 km, 34.3° (Epoch: 14 October)

Event Time Altitude Azimuth Distance (km) Brightness Sun altitude
Rises 18:05:25 0° 198° (SSW) 5,422 13.8 -33.9°
Reaches altitude 10° 18:09:07 10° 187° (S) 4,841 13.4 -34.6°
Enters shadow 18:13:11 21° 172° (S) 4,430 13.1 -35.4°
Maximum altitude 18:21:37 31° 131° (SE) 4,462 - -37.1°
Drops below altitude 10° 18:39:10 10° 79° (E) 6,870 - -40.5°
Sets 18:45:44 0° 71° (ENE) 7,975 - -41.7°
